Location: ??????
(56.0120°N, 39.1740°E)
Time: 07:38:54
(UTC+00:00)

ADEOS Rocket - Pass Details

Date: 14 April 2026
Orbit: 859 x 1304 km, 98.8° (Epoch: 13 May)

Event Time Altitude Azimuth Distance (km) Brightness Sun altitude
Rises 23:07:54 0° 17° (NNE) 4,015 7.7 -20.8°
Reaches altitude 10° 23:10:31 10° 22° (NNE) 3,108 6.8 -20.6°
Maximum altitude 23:17:34 53° 99° (E) 1,498 4.0 -20.2°
Enters shadow 23:23:12 19° 170° (S) 2,686 4.9 -19.8°
